Location: Allisons_Woods
(35.8920°N, 81.8170°W)
Time: 22:01:55
(UTC-04:00)

Daily predictions for brighter satellites

Satellite Brightness Start Highest point End
(mag) Time Altitude Azimuth Time Altitude Azimuth Time Altitude Azimuth
H-2A R/B 3.6 19:41:16 10° SSW 19:44:40 29° SE 19:56:30 10° E
Cosmos 2278 Rocket 3.0 20:01:09 10° SSE 20:05:56 29° ESE 20:10:44 10° NE
Cosmos 1934 Rocket 4.3 20:04:36 10° SSE 20:10:18 41° E 20:15:57 10° NNE
Cosmos 1898 Rocket 3.5 20:06:54 10° SSW 20:12:13 82° ESE 20:17:32 10° NNE
Cosmos 990 Rocket 4.3 20:08:23 10° S 20:13:22 46° ESE 20:18:22 10° NNE
Cosmos 1378 3.8 20:10:46 10° NNE 20:14:13 33° E 20:17:37 10° SE
Tiangong 1 2.6 20:12:11 10° NW 20:14:39 23° N 20:17:05 10° ENE
Cosmos 1953 4.2 20:14:00 10° ESE 20:15:22 11° E 20:16:43 10° ENE
FENGYUN 3A 3.8 20:12:03 10° SSE 20:17:18 55° ENE 20:22:35 10° N
H-2A R/B 3.4 20:17:47 10° SE 20:21:18 34° ENE 20:24:53 10° N
Meteor 1-24 Rocket 4.0 20:18:32 10° N 20:23:47 45° ENE 20:29:12 10° SSE
NOSS 3-4 (C) 4.5 20:21:09 10° NW 20:28:10 60° WSW 20:35:34 10° SSE
Cosmos 1707 2.8 20:25:05 10° N 20:29:00 84° W 20:32:53 10° S
Cosmos 1821 Rocket 4.0 20:23:37 10° S 20:30:00 80° E 20:36:23 10° N
Meteor 2-5 Rocket 3.8 20:24:22 10° N 20:30:07 89° W 20:35:58 10° S
Geosat 4.0 20:29:15 10° NNE 20:34:14 62° ESE 20:39:11 10° SSW
ALOS 2.3 20:31:26 10° SSE 20:36:06 90° N 20:40:48 10° NNW
HJ-1C 3.3 20:33:16 10° SSE 20:36:39 85° ENE 20:40:04 10° N
CZ-3B DEB 3.5 20:24:37 10° SW 20:37:58 74° NW 20:43:51 10° NE
Cosmos 2082 Rocket 3.9 20:34:53 10° NNE 20:38:01 15° NE 20:39:45 13° ENE
GP-B 4.5 20:37:25 17° E 20:38:42 20° ENE 20:41:53 10° NNE
Cosmos 1812 Rocket 3.5 20:34:52 10° S 20:39:18 88° ESE 20:43:44 10° N
Meteor 1-4 Rocket 4.1 20:40:40 17° ENE 20:40:40 17° ENE 20:42:08 10° NE
Resurs 01 Rocket 1.6 20:35:24 10° SSE 20:39:44 62° ENE 20:44:06 10° N
Cosmos 1766 3.1 20:36:37 10° S 20:40:27 66° E 20:44:17 10° NNE
Cosmos 1544 3.9 20:38:13 10° SSE 20:41:21 28° E 20:44:31 10° NNE
RESURS DK-1 3.0 20:40:20 10° N 20:44:09 35° ENE 20:46:07 22° ESE
Cosmos 1937 Rocket 3.9 20:40:01 10° SSW 20:45:12 69° WNW 20:50:29 10° NNE
COSMOS 2406 3.5 20:39:52 10° NNW 20:45:36 71° WSW 20:51:15 10° SSE
BREEZE-M DEB (TANK) 3.1 20:43:40 10° SSW 20:46:20 37° SE 20:52:57 10° ENE
Cosmos 1605 Rocket 4.0 20:41:51 10° S 20:47:56 59° E 20:54:08 10° NNE
SL-27 R/B 2.8 20:45:17 10° N 20:48:43 45° ENE 20:50:28 24° SE
Lacrosse 5 1.9 20:45:48 10° SW 20:50:52 86° NW 20:55:57 10° NE
Meteor 1-29 3.7 20:49:25 10° NE 20:52:30 30° E 20:52:30 30° E
SeaSat 1 3.2 20:51:40 10° S 20:56:27 52° WSW 21:01:16 10° NW
Delta 2 Rocket 3.4 20:53:44 10° W 20:58:24 79° S 21:00:10 34° ESE
Cosmos 2098 Rocket 4.5 20:52:36 10° SSE 20:59:08 51° E 21:06:24 10° NNE
Cosmos 1076 Rocket 4.3 20:55:50 10° NNE 20:59:35 30° ENE 20:59:48 30° E
Spot 1 4.3 21:00:11 22° SE 21:02:59 55° ENE 21:07:39 10° N
Cosmos 2123 Rocket 3.9 20:57:28 10° N 21:03:49 84° E 21:10:06 10° S
CZ-2D R/B 3.4 21:06:58 12° S 21:10:32 76° WSW 21:14:25 10° NNW
Cosmos 2344 4.1 21:03:34 10° SW 21:11:09 63° NW 21:19:30 10° NNE
Helios 1A 2.8 21:14:06 34° SSE 21:15:51 75° ENE 21:20:01 10° N
Cosmos 1867 3.7 21:10:41 10° S 21:15:52 48° ESE 21:21:06 10° NE
Helios 1B rocket 2.3 21:12:57 10° NNE 21:17:06 89° WSW 21:21:12 10° SSW
Cosmos 1153 Rocket 4.4 21:10:51 10° S 21:17:10 70° E 21:23:32 10° NNE
Cosmos 1805 3.2 21:13:18 10° S 21:17:11 86° W 21:21:06 10° N
Yuri Rocket 4.0 21:15:21 10° WSW 21:18:57 29° S 21:19:20 28° S
Cosmos 1674 4.4 21:17:04 10° NNE 21:18:33 20° NNE 21:18:33 20° NNE
Lacrosse 4 Rocket 4.4 21:23:28 10° W 21:25:50 15° NW 21:28:12 10° NNW
Cosmos 372 Rocket 3.8 21:27:39 10° S 21:32:39 62° ESE 21:37:43 10° NNE
Cosmos 1758 4.1 21:37:10 10° SSW 21:41:01 50° W 21:44:53 10° N
Cosmos 1447 Rocket 4.4 21:37:15 10° N 21:43:24 85° W 21:46:45 29° S
SJ-11-01 4.1 21:44:05 83° SE 21:44:14 86° ENE 21:48:59 10° NNW
USA 215 3.6 21:37:56 10° NE 21:44:24 65° NW 21:50:49 10° WSW
Cosmos 1459 Rocket 3.8 21:45:23 45° SSE 21:47:21 70° E 21:53:32 10° NNE
Cosmos 1939 Rocket 3.6 21:49:27 48° NNW 21:49:27 48° NNW 21:52:29 10° NNW
OAO 1 4.3 21:42:51 10° W 21:48:20 79° S 21:48:33 77° SSE
Cosmos 2173 Rocket 3.8 21:48:08 55° SSE 21:49:24 71° E 21:55:36 10° N
Cosmos 2278 Rocket 3.8 21:44:43 10° SW 21:49:50 34° WNW 21:55:00 10° N
Cosmos 158 Rocket 4.5 21:45:01 10° N 21:48:59 46° NNE 21:48:59 46° NNE
Tiangong 1 3.8 21:47:53 10° WNW 21:48:47 18° WNW 21:48:47 18° WNW
Cosmos 1953 3.6 21:47:29 10° SSW 21:51:20 41° W 21:55:12 10° N
CZ-3 Stage 3 3.3 21:19:33 10° W 21:52:34 68° S 21:54:42 50° SE
Cosmos 1833 Rocket 3.0 21:47:54 10° NNW 21:52:40 50° NE 21:52:40 50° NE
Cosmos 1408 Rocket 4.1 21:49:49 10° N 21:53:15 53° NNW 21:53:15 53° NNW
Envisat 3.1 21:54:30 58° SSW 21:55:19 69° WSW 22:00:24 10° NNW
Cosmos 2297 4.1 21:56:20 10° SSW 22:01:57 61° WNW 22:07:39 10° NNE
Cosmos 1125 Rocket 4.3 21:57:41 10° SW 22:02:41 48° WNW 22:07:44 10° N
Cosmos 1048 Rocket 4.4 22:05:02 10° NNW 22:09:10 58° NW 22:09:10 58° NW
USA 267 4.1 22:14:41 35° NE 22:14:47 35° NNE 22:20:35 10° NNW
Cosmos 2016 Rocket 4.4 22:22:04 55° N 22:22:04 55° N 22:26:45 10° N
ERS-1 Rocket 4.0 22:23:32 42° NNW 22:23:32 42° NNW 22:26:53 10° NNW
Cosmos 2082 Rocket 2.6 22:17:02 10° NNW 22:21:38 58° NW 22:21:38 58° NW
Cosmos 1818 4.4 22:21:53 10° NW 22:26:01 48° WNW 22:26:01 48° WNW
Lacrosse 5 4.4 22:31:13 10° WNW 22:34:30 17° NNW 22:37:27 11° N
